Location: Four Corners
(38.2757°N, 122.4608°W)
Time: 02:06:39
(UTC+00:00)

YAOGAN 6 - Pass Details

Date: 08 December 2019
Orbit: 466 x 504 km, 97.0° (Epoch: 20 January)

Event Time Altitude Azimuth Distance (km) Brightness Sun altitude
Rises 02:40:58 0° 180° (S) 2,495 6.3 -21.3°
Reaches altitude 10° 02:43:03 10° 187° (S) 1,627 5.4 -21.7°
Maximum altitude 02:46:25 46° 261° (W) 651 3.6 -22.3°
Drops below altitude 10° 02:49:51 10° 336° (NNW) 1,658 5.4 -23.0°
Sets 02:52:00 0° 343° (NNW) 2,549 6.3 -23.4°
